| time (UTC) | temp F | wind direction | speed knots | gust knots | rain 1hr in | rain 24hr in | rain mn in | humidity % | barometer mb |
| 20260906064528 | 78 | 40 | 7.8 | 14.8 | 0.00 | 0.00 | 0.00 | 55 | 1019.6 |
| 20260906063017 | 77 | 78 | 5.2 | 12.2 | 0.00 | 0.00 | 0.00 | 57 | 1019.6 |
| 20260906061513 | 76 | 96 | 4.3 | 13.9 | 0.00 | 0.00 | 0.00 | 60 | 1019.4 |
| 20260906060015 | 76 | 43 | 5.2 | 12.2 | 0.00 | 0.00 | 0.00 | 61 | 1019.2 |
| 20260906054507 | 75 | 51 | 2.6 | 9.6 | 0.00 | 0.00 | 0.00 | 64 | 1019.1 |
| 20260906053006 | 74 | 38 | 3.5 | 8.7 | 0.00 | 0.00 | 0.00 | 66 | 1019.1 |
| 20260906051601 | 73 | 35 | 4.3 | 7.8 | 0.00 | 0.00 | 0.00 | 68 | 1018.9 |
| 20260906050056 | 72 | 60 | 5.2 | 9.6 | 0.00 | 0.00 | 0.00 | 69 | 1018.7 |
| 20260906044553 | 72 | 31 | 4.3 | 8.7 | 0.00 | 0.00 | 0.00 | 71 | 1018.5 |
| 20260906043050 | 72 | 45 | 3.5 | 7.8 | 0.00 | 0.00 | 0.00 | 73 | 1018.4 |
| 20260906041550 | 72 | 49 | 2.6 | 4.3 | 0.00 | 0.00 | 0.00 | 73 | 1018.4 |
| 20260906040051 | 71 | 29 | 1.7 | 4.3 | 0.00 | 0.00 | 0.00 | 75 | 1018.3 |
| 20260906034547 | 72 | 9 | 2.6 | 5.2 | 0.00 | 0.00 | 0.00 | 75 | 1018.2 |
| 20260906033045 | 72 | 11 | 3.5 | 5.2 | 0.00 | 0.00 | 0.00 | 74 | 1018.0 |
| 20260906031544 | 72 | 19 | 2.6 | 4.3 | 0.00 | 0.00 | 0.00 | 74 | 1018.0 |
| 20260906030043 | 73 | 19 | 0.9 | 4.3 | 0.00 | 0.00 | 0.00 | 74 | 1017.8 |
| 20260906024539 | 73 | 11 | 2.6 | 4.3 | 0.00 | 0.00 | 0.00 | 71 | 1017.7 |
| 20260906023045 | 73 | 46 | 1.7 | 4.3 | 0.00 | 0.00 | 0.00 | 72 | 1017.7 |
| 20260906021538 | 73 | 21 | 2.6 | 4.3 | 0.00 | 0.00 | 0.00 | 72 | 1017.6 |
| 20260906020037 | 74 | 17 | 2.6 | 6.1 | 0.00 | 0.00 | 0.00 | 71 | 1017.6 |
| 20260906014539 | 74 | 31 | 3.5 | 6.1 | 0.00 | 0.00 | 0.00 | 70 | 1017.6 |
| 20260906013035 | 74 | 26 | 3.5 | 7.0 | 0.00 | 0.00 | 0.00 | 70 | 1017.6 |
| 20260906011534 | 73 | 29 | 1.7 | 5.2 | 0.00 | 0.00 | 0.00 | 72 | 1017.4 |
| 20260906010033 | 73 | 28 | 2.6 | 5.2 | 0.00 | 0.00 | 0.00 | 74 | 1017.4 |
| 20260906004532 | 73 | 17 | 1.7 | 3.5 | 0.00 | 0.00 | 0.00 | 74 | 1017.4 |
| 20260906003030 | 73 | 21 | 1.7 | 2.6 | 0.00 | 0.00 | 0.00 | 73 | 1017.4 |
| 20260906001529 | 73 | 23 | 1.7 | 2.6 | 0.00 | 0.00 | 0.00 | 71 | 1017.4 |
| 20260906000027 | 73 | 23 | 0.9 | 3.5 | 0.00 | 0.00 | 0.00 | 69 | 1017.3 |
| 20260905234526 | 73 | 24 | 1.7 | 4.3 | 0.00 | 0.00 | 0.00 | 68 | 1017.3 |
| 20260905233024 | 74 | 31 | 0.9 | 2.6 | 0.00 | 0.00 | 0.00 | 66 | 1017.3 |
| 20260905231520 | 75 | 31 | 1.7 | 2.6 | 0.00 | 0.00 | 0.00 | 63 | 1017.2 |
| 20260905230018 | 76 | 31 | 1.7 | 4.3 | 0.00 | 0.00 | 0.00 | 61 | 1017.1 |
| 20260905224520 | 76 | 26 | 2.6 | 4.3 | 0.00 | 0.00 | 0.00 | 61 | 1017.0 |
| 20260905223013 | 76 | 22 | 1.7 | 4.3 | 0.00 | 0.00 | 0.00 | 60 | 1016.8 |
| 20260905221528 | 76 | 45 | 3.5 | 5.2 | 0.00 | 0.00 | 0.00 | 60 | 1016.6 |
| 20260905220009 | 77 | 40 | 2.6 | 5.2 | 0.00 | 0.00 | 0.00 | 60 | 1016.6 |
| 20260905214509 | 77 | 53 | 2.6 | 5.2 | 0.00 | 0.00 | 0.00 | 60 | 1016.4 |
| 20260905213007 | 77 | 38 | 1.7 | 5.2 | 0.00 | 0.00 | 0.00 | 60 | 1016.4 |
| 20260905211507 | 77 | 53 | 3.5 | 6.1 | 0.00 | 0.00 | 0.00 | 60 | 1016.4 |
| 20260905210007 | 77 | 50 | 2.6 | 8.7 | 0.00 | 0.00 | 0.00 | 62 | 1016.4 |
| 20260905204506 | 78 | 57 | 3.5 | 7.0 | 0.00 | 0.00 | 0.00 | 64 | 1016.5 |
| 20260905203004 | 78 | 71 | 3.5 | 7.8 | 0.00 | 0.00 | 0.00 | 65 | 1016.4 |
| 20260905201503 | 77 | 65 | 3.5 | 8.7 | 0.00 | 0.00 | 0.00 | 71 | 1016.3 |
| 20260905200002 | 77 | 18 | 2.6 | 3.5 | 0.00 | 0.00 | 0.00 | 80 | 1016.1 |
| 20260905194600 | 78 | 38 | 0.9 | 2.6 | 0.00 | 0.00 | 0.00 | 81 | 1015.8 |
| 20260905193058 | 78 | 39 | 2.6 | 3.5 | 0.00 | 0.00 | 0.00 | 80 | 1015.8 |
| 20260905191557 | 79 | 76 | 0.9 | 2.6 | 0.00 | 0.00 | 0.00 | 81 | 1015.6 |
| 20260905190112 | 79 | 77 | 0.9 | 3.5 | 0.00 | 0.00 | 0.00 | 81 | 1015.4 |
| 20260905184606 | 79 | 121 | 0.9 | 2.6 | 0.00 | 0.00 | 0.00 | 79 | 1015.3 |
| 20260905183051 | 80 | 121 | 1.7 | 5.2 | 0.00 | 0.00 | 0.00 | 77 | 1015.1 |
| 20260905181550 | 81 | 163 | 1.7 | 4.3 | 0.00 | 0.00 | 0.00 | 75 | 1014.7 |
| 20260905180046 | 82 | 165 | 0.0 | 2.6 | 0.00 | 0.00 | 0.00 | 72 | 1014.6 |
| 20260905174554 | 83 | 165 | 0.9 | 4.3 | 0.00 | 0.00 | 0.00 | 70 | 1014.2 |
| 20260905173046 | 85 | 171 | 0.0 | 2.6 | 0.00 | 0.00 | 0.00 | 67 | 1014.1 |
| 20260905171544 | 86 | 163 | 1.7 | 5.2 | 0.00 | 0.00 | 0.00 | 64 | 1013.8 |
| 20260905170044 | 88 | 194 | 0.0 | 0.9 | 0.00 | 0.00 | 0.00 | 57 | 1013.7 |
| 20260905164543 | 88 | 194 | 0.0 | 2.6 | 0.00 | 0.00 | 0.00 | 56 | 1013.5 |
| 20260905163042 | 89 | 194 | 0.9 | 3.5 | 0.00 | 0.00 | 0.00 | 51 | 1013.3 |
| 20260905161642 | 89 | 194 | 1.7 | 3.5 | 0.00 | 0.00 | 0.00 | 52 | 1013.2 |
| 20260905160039 | 90 | 191 | 2.6 | 4.3 | 0.00 | 0.00 | 0.00 | 49 | 1013.2 |
| 20260905154539 | 91 | 141 | 0.9 | 4.3 | 0.00 | 0.00 | 0.00 | 49 | 1013.2 |
| 20260905153039 | 91 | 170 | 2.6 | 7.0 | 0.00 | 0.00 | 0.00 | 48 | 1013.0 |
| 20260905151538 | 90 | 93 | 1.7 | 4.3 | 0.00 | 0.00 | 0.00 | 48 | 1013.1 |
| 20260905150037 | 90 | 132 | 1.7 | 4.3 | 0.00 | 0.00 | 0.00 | 48 | 1013.1 |
| 20260905144542 | 91 | 162 | 0.9 | 6.1 | 0.00 | 0.00 | 0.00 | 49 | 1013.1 |
| 20260905143037 | 92 | 113 | 2.6 | 6.1 | 0.00 | 0.00 | 0.00 | 46 | 1013.1 |
| 20260905141540 | 91 | 190 | 2.6 | 5.2 | 0.00 | 0.00 | 0.00 | 47 | 1013.1 |
| 20260905140029 | 91 | 209 | 2.6 | 5.2 | 0.00 | 0.00 | 0.00 | 47 | 1013.2 |
| 20260905134528 | 91 | 196 | 0.9 | 5.2 | 0.00 | 0.00 | 0.00 | 47 | 1013.3 |
| 20260905133026 | 90 | 201 | 2.6 | 5.2 | 0.00 | 0.00 | 0.00 | 49 | 1013.3 |
| 20260905131541 | 90 | 146 | 3.5 | 9.6 | 0.00 | 0.00 | 0.00 | 49 | 1013.4 |
| 20260905130024 | 90 | 138 | 2.6 | 7.8 | 0.00 | 0.00 | 0.00 | 49 | 1013.5 |
| 20260905124536 | 90 | 161 | 1.7 | 7.8 | 0.00 | 0.00 | 0.00 | 48 | 1013.6 |
| 20260905123016 | 90 | 160 | 3.5 | 7.0 | 0.00 | 0.00 | 0.00 | 47 | 1013.7 |
| 20260905121522 | 89 | 133 | 1.7 | 7.0 | 0.00 | 0.00 | 0.00 | 47 | 1013.8 |
| 20260905120013 | 88 | 153 | 1.7 | 7.0 | 0.00 | 0.00 | 0.00 | 47 | 1014.0 |
| 20260905114531 | 89 | 94 | 1.7 | 7.8 | 0.00 | 0.00 | 0.00 | 45 | 1014.1 |
| 20260905113011 | 89 | 99 | 0.9 | 5.2 | 0.00 | 0.00 | 0.00 | 44 | 1014.0 |
| 20260905111510 | 88 | 175 | 3.5 | 7.0 | 0.00 | 0.00 | 0.00 | 48 | 1014.1 |
| 20260905110004 | 87 | 202 | 1.7 | 4.3 | 0.00 | 0.00 | 0.00 | 49 | 1014.1 |
| 20260905104502 | 86 | 19 | 0.9 | 3.5 | 0.00 | 0.00 | 0.00 | 46 | 1014.3 |
| 20260905103058 | 85 | 53 | 0.9 | 5.2 | 0.00 | 0.00 | 0.00 | 44 | 1014.3 |
| 20260905101618 | 83 | 123 | 1.7 | 6.1 | 0.00 | 0.00 | 0.00 | 51 | 1014.4 |
| 20260905100053 | 83 | 81 | 0.0 | 4.3 | 0.00 | 0.00 | 0.00 | 53 | 1014.4 |
| 20260905094553 | 83 | 36 | 0.9 | 3.5 | 0.00 | 0.00 | 0.00 | 52 | 1014.4 |
| 20260905093052 | 83 | 51 | 0.9 | 3.5 | 0.00 | 0.00 | 0.00 | 55 | 1014.4 |
| 20260905091549 | 83 | 121 | 0.0 | 3.5 | 0.00 | 0.00 | 0.00 | 56 | 1014.4 |
| 20260905090048 | 82 | 125 | 2.6 | 5.2 | 0.00 | 0.00 | 0.00 | 59 | 1014.2 |
| 20260905084603 | 82 | 33 | 1.7 | 5.2 | 0.00 | 0.00 | 0.00 | 60 | 1014.2 |
| 20260905083047 | 83 | 107 | 1.7 | 5.2 | 0.00 | 0.00 | 0.00 | 59 | 1014.1 |
| 20260905081545 | 83 | 94 | 1.7 | 4.3 | 0.00 | 0.00 | 0.00 | 60 | 1014.0 |
| 20260905080041 | 82 | 96 | 0.9 | 7.0 | 0.00 | 0.00 | 0.00 | 61 | 1013.9 |
| 20260905074538 | 80 | 128 | 2.6 | 7.0 | 0.00 | 0.00 | 0.00 | 64 | 1013.7 |
| 20260905073035 | 78 | 110 | 0.9 | 3.5 | 0.00 | 0.00 | 0.00 | 64 | 1013.6 |
| 20260905071529 | 76 | 15 | 1.7 | 4.3 | 0.00 | 0.00 | 0.00 | 72 | 1013.5 |
| 20260905070024 | 75 | 15 | 1.7 | 3.5 | 0.00 | 0.00 | 0.00 | 79 | 1013.6 |